| time (UTC) | temp C | wind direction | speed KPH | gust KPH | rain 1hr cm | rain 24hr cm | rain mn cm | humidity % | barometer mb |
| 20260509101453 | 12 | 243 | 1.6 | 1.6 | 0.00 | 0.00 | 0.00 | 84 | 1012.5 |
| 20260509100523 | 12 | 84 | 0.0 | 0.0 | 0.00 | 0.00 | 0.00 | 84 | 1012.4 |
| 20260509095453 | 12 | 115 | 0.0 | 0.0 | 0.00 | 0.03 | 0.00 | 84 | 1012.4 |
| 20260509094453 | 12 | 214 | 0.0 | 0.0 | 0.00 | 0.03 | 0.00 | 84 | 1012.4 |
| 20260509093453 | 13 | 229 | 0.0 | 0.0 | 0.00 | 0.03 | 0.00 | 83 | 1012.4 |
| 20260509092453 | 13 | 229 | 0.0 | 0.0 | 0.00 | 0.03 | 0.00 | 83 | 1012.4 |
| 20260509091453 | 13 | 231 | 0.0 | 0.0 | 0.00 | 0.03 | 0.00 | 82 | 1012.3 |
| 20260509090453 | 13 | 229 | 0.0 | 0.0 | 0.00 | 0.03 | 0.00 | 82 | 1012.3 |
| 20260509084523 | 13 | 230 | 0.0 | 3.2 | 0.00 | 0.03 | 0.00 | 81 | 1012.2 |
| 20260509082453 | 14 | 186 | 0.0 | 1.6 | 0.00 | 0.03 | 0.00 | 80 | 1012.3 |
| 20260509081453 | 14 | 210 | 0.0 | 4.8 | 0.00 | 0.03 | 0.00 | 79 | 1012.2 |
| 20260509080523 | 14 | 271 | 0.0 | 1.6 | 0.00 | 0.03 | 0.00 | 79 | 1012.4 |
| 20260509075453 | 14 | 200 | 0.0 | 3.2 | 0.00 | 0.03 | 0.00 | 79 | 1012.4 |
| 20260509074453 | 14 | 250 | 0.0 | 1.6 | 0.00 | 0.03 | 0.00 | 78 | 1012.4 |
| 20260509073453 | 15 | 188 | 0.0 | 1.6 | 0.00 | 0.03 | 0.00 | 78 | 1012.6 |
| 20260509072453 | 15 | 144 | 0.0 | 4.8 | 0.00 | 0.03 | 0.00 | 77 | 1012.7 |
| 20260509071453 | 15 | 229 | 0.0 | 3.2 | 0.00 | 0.03 | 0.00 | 76 | 1012.7 |
| 20260509070453 | 15 | 225 | 6.4 | 6.4 | 0.00 | 0.03 | 0.00 | 75 | 1012.7 |
| 20260509065453 | 15 | 190 | 0.0 | 1.6 | 0.00 | 0.03 | 0.00 | 75 | 1012.7 |
| 20260509064453 | 15 | 319 | 0.0 | 4.8 | 0.00 | 0.03 | 0.00 | 74 | 1012.6 |
| 20260509062523 | 15 | 172 | 0.0 | 0.0 | 0.00 | 0.03 | 0.00 | 74 | 1012.9 |
| 20260509061453 | 14 | 198 | 0.0 | 0.0 | 0.00 | 0.03 | 0.00 | 76 | 1012.9 |
| 20260509060523 | 14 | 245 | 0.0 | 0.0 | 0.00 | 0.03 | 0.00 | 77 | 1012.8 |
| 20260509055453 | 13 | 254 | 0.0 | 0.0 | 0.00 | 0.03 | 0.00 | 78 | 1012.7 |
| 20260509054453 | 13 | 209 | 0.0 | 0.0 | 0.00 | 0.03 | 0.00 | 80 | 1012.7 |
| 20260509053453 | 13 | 221 | 1.6 | 1.6 | 0.00 | 0.03 | 0.00 | 80 | 1012.8 |
| 20260509052453 | 13 | 221 | 0.0 | 1.6 | 0.00 | 0.03 | 0.00 | 79 | 1012.8 |
| 20260509051453 | 13 | 200 | 0.0 | 0.0 | 0.00 | 0.03 | 0.00 | 79 | 1012.9 |
| 20260509050453 | 13 | 199 | 0.0 | 1.6 | 0.00 | 0.03 | 0.00 | 79 | 1012.9 |
| 20260509045453 | 13 | 187 | 0.0 | 0.0 | 0.00 | 0.03 | 0.00 | 79 | 1012.8 |
| 20260509044453 | 13 | 213 | 0.0 | 0.0 | 0.00 | 0.03 | 0.00 | 78 | 1012.9 |
| 20260509042523 | 13 | 223 | 0.0 | 0.0 | 0.00 | 0.03 | 0.00 | 78 | 1013.0 |
| 20260509041453 | 13 | 175 | 0.0 | 3.2 | 0.00 | 0.03 | 0.00 | 77 | 1013.1 |
| 20260509040523 | 13 | 306 | 0.0 | 0.0 | 0.00 | 0.03 | 0.03 | 76 | 1013.2 |
| 20260509035453 | 13 | 277 | 0.0 | 0.0 | 0.00 | 0.03 | 0.03 | 76 | 1013.2 |
| 20260509034453 | 13 | 277 | 0.0 | 0.0 | 0.00 | 0.03 | 0.03 | 75 | 1013.4 |
| 20260509032453 | 13 | 193 | 0.0 | 0.0 | 0.00 | 0.03 | 0.03 | 75 | 1013.4 |
| 20260509031453 | 13 | 234 | 0.0 | 0.0 | 0.00 | 0.03 | 0.03 | 74 | 1013.4 |
| 20260509030453 | 13 | 235 | 0.0 | 0.0 | 0.00 | 0.03 | 0.03 | 74 | 1013.4 |
| 20260509025453 | 13 | 311 | 0.0 | 0.0 | 0.00 | 0.03 | 0.03 | 73 | 1013.5 |
| 20260509024523 | 13 | 207 | 0.0 | 3.2 | 0.00 | 0.03 | 0.03 | 73 | 1013.4 |
| 20260509023453 | 13 | 257 | 0.0 | 0.0 | 0.00 | 0.03 | 0.03 | 72 | 1013.3 |
| 20260509022453 | 14 | 255 | 0.0 | 0.0 | 0.00 | 0.03 | 0.03 | 71 | 1013.4 |
| 20260509021453 | 14 | 256 | 0.0 | 0.0 | 0.00 | 0.03 | 0.03 | 69 | 1013.3 |
| 20260509020523 | 15 | 256 | 0.0 | 0.0 | 0.00 | 0.03 | 0.03 | 67 | 1013.3 |
| 20260509015453 | 15 | 253 | 1.6 | 3.2 | 0.00 | 0.03 | 0.03 | 67 | 1013.2 |
| 20260509014453 | 15 | 208 | 0.0 | 0.0 | 0.00 | 0.03 | 0.03 | 66 | 1013.2 |
| 20260509013453 | 15 | 276 | 0.0 | 3.2 | 0.00 | 0.03 | 0.03 | 65 | 1013.2 |
| 20260509012453 | 15 | 341 | 0.0 | 0.0 | 0.00 | 0.03 | 0.03 | 63 | 1013.1 |
| 20260509011453 | 15 | 316 | 0.0 | 0.0 | 0.00 | 0.03 | 0.03 | 65 | 1012.9 |
| 20260509010453 | 16 | 24 | 0.0 | 0.0 | 0.00 | 0.03 | 0.03 | 64 | 1012.8 |
| 20260509005453 | 16 | 148 | 0.0 | 0.0 | 0.00 | 0.03 | 0.03 | 64 | 1012.8 |
| 20260509004453 | 16 | 148 | 0.0 | 0.0 | 0.00 | 0.03 | 0.03 | 64 | 1012.7 |
| 20260509003524 | 16 | 108 | 0.0 | 0.0 | 0.00 | 0.03 | 0.03 | 64 | 1012.7 |
| 20260509002523 | 16 | 103 | 0.0 | 0.0 | 0.00 | 0.03 | 0.03 | 63 | 1012.7 |
| 20260509001453 | 16 | 53 | 0.0 | 0.0 | 0.00 | 0.03 | 0.03 | 62 | 1012.6 |
| 20260509000455 | 16 | 46 | 0.0 | 0.0 | 0.00 | 0.03 | 0.03 | 62 | 1012.5 |
| 20260508235453 | 16 | 252 | 0.0 | 0.0 | 0.00 | 0.03 | 0.03 | 61 | 1012.5 |
| 20260508234453 | 17 | 338 | 0.0 | 0.0 | 0.00 | 0.03 | 0.03 | 59 | 1012.4 |
| 20260508233453 | 17 | 245 | 0.0 | 0.0 | 0.00 | 0.03 | 0.03 | 57 | 1012.3 |
| 20260508232453 | 17 | 246 | 0.0 | 0.0 | 0.00 | 0.03 | 0.03 | 56 | 1012.2 |
| 20260508231454 | 18 | 336 | 0.0 | 0.0 | 0.00 | 0.03 | 0.03 | 55 | 1012.1 |
| 20260508230453 | 18 | 72 | 0.0 | 1.6 | 0.00 | 0.03 | 0.03 | 53 | 1012.1 |
| 20260508225453 | 18 | 91 | 0.0 | 0.0 | 0.00 | 0.03 | 0.03 | 53 | 1012.0 |
| 20260508224453 | 18 | 91 | 0.0 | 0.0 | 0.00 | 0.03 | 0.03 | 52 | 1012.1 |
| 20260508223453 | 19 | 91 | 0.0 | 0.0 | 0.00 | 0.03 | 0.03 | 46 | 1012.2 |
| 20260508222453 | 19 | 49 | 0.0 | 1.6 | 0.00 | 0.03 | 0.03 | 49 | 1012.3 |
| 20260508221453 | 19 | 165 | 1.6 | 4.8 | 0.00 | 0.03 | 0.03 | 46 | 1012.2 |
| 20260508220453 | 19 | 140 | 0.0 | 4.8 | 0.00 | 0.03 | 0.03 | 45 | 1012.2 |
| 20260508215454 | 20 | 34 | 0.0 | 3.2 | 0.00 | 0.03 | 0.03 | 49 | 1012.2 |
| 20260508214454 | 20 | 131 | 3.2 | 3.2 | 0.00 | 0.03 | 0.03 | 44 | 1012.1 |
| 20260508213454 | 21 | 245 | 3.2 | 4.8 | 0.00 | 0.03 | 0.03 | 43 | 1012.2 |
| 20260508212523 | 21 | 225 | 0.0 | 1.6 | 0.00 | 0.03 | 0.03 | 38 | 1012.3 |
| 20260508211524 | 21 | 167 | 1.6 | 4.8 | 0.00 | 0.03 | 0.03 | 38 | 1012.3 |
| 20260508210454 | 21 | 205 | 9.7 | 9.7 | 0.00 | 0.03 | 0.03 | 37 | 1012.4 |
| 20260508205454 | 21 | 206 | 1.6 | 6.4 | 0.00 | 0.03 | 0.03 | 40 | 1012.4 |
| 20260508204454 | 21 | 170 | 1.6 | 4.8 | 0.00 | 0.03 | 0.03 | 40 | 1012.5 |
| 20260508203454 | 21 | 200 | 3.2 | 3.2 | 0.00 | 0.03 | 0.03 | 38 | 1012.6 |
| 20260508202524 | 21 | 200 | 0.0 | 4.8 | 0.00 | 0.03 | 0.03 | 40 | 1012.7 |
| 20260508201454 | 21 | 35 | 1.6 | 6.4 | 0.00 | 0.03 | 0.03 | 39 | 1012.9 |
| 20260508200454 | 21 | 275 | 4.8 | 4.8 | 0.00 | 0.03 | 0.03 | 39 | 1012.8 |
| 20260508194454 | 21 | 223 | 0.0 | 4.8 | 0.00 | 0.05 | 0.03 | 39 | 1013.2 |
| 20260508193454 | 20 | 225 | 1.6 | 6.4 | 0.00 | 0.08 | 0.03 | 38 | 1013.2 |
| 20260508192454 | 20 | 140 | 4.8 | 4.8 | 0.00 | 0.08 | 0.03 | 39 | 1013.4 |
| 20260508191454 | 21 | 274 | 0.0 | 3.2 | 0.00 | 0.08 | 0.03 | 39 | 1013.5 |
| 20260508190454 | 20 | 275 | 0.0 | 11.3 | 0.00 | 0.08 | 0.03 | 38 | 1013.6 |
| 20260508185454 | 20 | 124 | 0.0 | 4.8 | 0.00 | 0.08 | 0.03 | 38 | 1013.8 |
| 20260508184454 | 21 | 261 | 3.2 | 4.8 | 0.00 | 0.08 | 0.03 | 44 | 1013.9 |
| 20260508183453 | 20 | 260 | 3.2 | 4.8 | 0.00 | 0.08 | 0.03 | 42 | 1013.9 |
| 20260508182454 | 20 | 184 | 0.0 | 8.0 | 0.00 | 0.08 | 0.03 | 42 | 1014.1 |
| 20260508181454 | 20 | 288 | 3.2 | 4.8 | 0.00 | 0.08 | 0.03 | 40 | 1014.3 |
| 20260508180454 | 20 | 266 | 0.0 | 3.2 | 0.00 | 0.08 | 0.03 | 41 | 1014.3 |
| 20260508175454 | 20 | 223 | 3.2 | 6.4 | 0.00 | 0.08 | 0.03 | 41 | 1014.4 |
| 20260508174454 | 19 | 88 | 1.6 | 6.4 | 0.00 | 0.08 | 0.03 | 40 | 1014.5 |
| 20260508173454 | 19 | 217 | 0.0 | 4.8 | 0.00 | 0.08 | 0.03 | 45 | 1014.5 |
| 20260508172454 | 18 | 171 | 3.2 | 3.2 | 0.00 | 0.08 | 0.03 | 40 | 1014.6 |
| 20260508171454 | 18 | 159 | 4.8 | 6.4 | 0.00 | 0.08 | 0.03 | 41 | 1014.7 |
| 20260508170454 | 18 | 259 | 1.6 | 4.8 | 0.00 | 0.08 | 0.03 | 41 | 1014.8 |
| 20260508165454 | 18 | 256 | 8.0 | 11.3 | 0.00 | 0.08 | 0.03 | 43 | 1014.9 |
| 20260508164454 | 18 | 174 | 0.0 | 3.2 | 0.00 | 0.08 | 0.03 | 34 | 1015.0 |
| 20260508163454 | 18 | 196 | 1.6 | 4.8 | 0.00 | 0.08 | 0.03 | 36 | 1015.1 |
| 20260508162454 | 18 | 107 | 0.0 | 3.2 | 0.00 | 0.08 | 0.03 | 41 | 1015.2 |
| 20260508160454 | 17 | 228 | 0.0 | 3.2 | 0.00 | 0.08 | 0.03 | 49 | 1015.4 |
| 20260508155454 | 17 | 143 | 0.0 | 4.8 | 0.00 | 0.08 | 0.03 | 47 | 1015.5 |
| 20260508154454 | 17 | 207 | 0.0 | 1.6 | 0.00 | 0.08 | 0.03 | 50 | 1015.5 |
| 20260508152454 | 17 | 164 | 1.6 | 4.8 | 0.00 | 0.08 | 0.03 | 52 | 1015.7 |
| 20260508151454 | 16 | 360 | 0.0 | 1.6 | 0.00 | 0.08 | 0.03 | 43 | 1015.7 |
| 20260508150454 | 16 | 290 | 0.0 | 0.0 | 0.00 | 0.08 | 0.03 | 37 | 1015.8 |
| 20260508145454 | 16 | 293 | 0.0 | 4.8 | 0.00 | 0.08 | 0.03 | 38 | 1015.8 |
| 20260508144454 | 15 | 131 | 0.0 | 1.6 | 0.00 | 0.08 | 0.03 | 39 | 1015.7 |
| 20260508143454 | 16 | 175 | 0.0 | 1.6 | 0.00 | 0.08 | 0.03 | 46 | 1015.8 |
| 20260508142454 | 15 | 61 | 0.0 | 0.0 | 0.00 | 0.08 | 0.03 | 45 | 1015.9 |
| 20260508141454 | 15 | 19 | 0.0 | 3.2 | 0.00 | 0.08 | 0.03 | 42 | 1015.9 |
| 20260508140454 | 15 | 274 | 0.0 | 1.6 | 0.00 | 0.08 | 0.03 | 42 | 1016.0 |
| 20260508135454 | 15 | 271 | 0.0 | 6.4 | 0.00 | 0.08 | 0.03 | 53 | 1016.0 |
| 20260508134524 | 15 | 336 | 0.0 | 0.0 | 0.00 | 0.08 | 0.03 | 42 | 1016.0 |
| 20260508133454 | 14 | 346 | 0.0 | 1.6 | 0.00 | 0.08 | 0.03 | 51 | 1016.0 |
| 20260508132454 | 14 | 273 | 0.0 | 4.8 | 0.00 | 0.08 | 0.03 | 56 | 1016.0 |
| 20260508131454 | 13 | 261 | 4.8 | 6.4 | 0.00 | 0.08 | 0.03 | 56 | 1016.0 |
| 20260508130454 | 13 | 280 | 0.0 | 4.8 | 0.00 | 0.08 | 0.03 | 64 | 1016.0 |
| 20260508125454 | 12 | 256 | 0.0 | 4.8 | 0.00 | 0.08 | 0.03 | 67 | 1015.9 |
| 20260508124624 | 12 | 256 | 0.0 | 3.2 | 0.00 | 0.08 | 0.03 | 67 | 1015.8 |
| 20260508123454 | 12 | 296 | 0.0 | 1.6 | 0.00 | 0.08 | 0.03 | 71 | 1015.7 |
| 20260508122454 | 12 | 295 | 0.0 | 1.6 | 0.00 | 0.08 | 0.03 | 71 | 1015.6 |
| 20260508121454 | 11 | 33 | 0.0 | 0.0 | 0.00 | 0.08 | 0.03 | 77 | 1015.5 |
| 20260508120524 | 11 | 306 | 1.6 | 4.8 | 0.00 | 0.08 | 0.03 | 77 | 1015.5 |
| 20260508115454 | 11 | 256 | 0.0 | 3.2 | 0.00 | 0.08 | 0.03 | 81 | 1015.4 |
| 20260508114524 | 10 | 151 | 0.0 | 0.0 | 0.00 | 0.08 | 0.03 | 84 | 1015.4 |
| 20260508113454 | 9 | 138 | 0.0 | 0.0 | 0.00 | 0.08 | 0.03 | 88 | 1015.2 |
| 20260508112524 | 8 | 138 | 0.0 | 0.0 | 0.00 | 0.08 | 0.03 | 89 | 1015.1 |
| 20260508110454 | 8 | 138 | 0.0 | 0.0 | 0.03 | 0.08 | 0.03 | 90 | 1014.9 |
| 20260508105454 | 7 | 173 | 0.0 | 0.0 | 0.03 | 0.10 | 0.03 | 90 | 1014.8 |
| 20260508104454 | 7 | 173 | 0.0 | 0.0 | 0.03 | 0.10 | 0.03 | 91 | 1014.6 |
| 20260508102454 | 7 | 325 | 0.0 | 0.0 | 0.03 | 0.10 | 0.03 | 91 | 1014.3 |